Weather History for Anoka County, MN

Change the Weather History Date:

Monday, November 19, 2012

  Actual Average Record
Temperature  
Mean Temperature 47 °F -  
Max Temperature 59 °F 37 °F 69 °F (2007)
Min Temperature 35 °F 22 °F 10 °F (1997)
Degree Days  
Heating Degree Days 18    
Moisture  
Dew Point 37 °F    
Average Humidity 65    
Maximum Humidity 93    
Minimum Humidity 48    
Precipitation  
Precipitation 0.00 in - - ()
Sea Level Pressure  
Sea Level Pressure 30.05 in    
Wind  
Wind Speed 9 mph (SSE)    
Max Wind Speed 13 mph    
Max Gust Speed -    
Visibility 10 miles    
Events      
Averages and records for this station are not official NWS values.
T = Trace of Precipitation, MM = Missing Value Source: NWS Daily Summary

Daily Weather History Graph

Daily Weather History Graph

Search for Another Location

Airport:

Trip Planner

Search our weather history database for the weather conditions in past years. The results will help you decide how hot, cold, wet, or windy it might be!

Date:

Astronomy

Nov. 19, 2012 Rise Set
Actual Time 7:16 AM CST 4:39 PM CST
Civil Twilight 6:44 AM CST 5:11 PM CST
Nautical Twilight 6:08 AM CST 5:47 PM CST
Astronomical Twilight 5:33 AM CST 6:22 PM CST
Moon 12:13 PM CST (11/19) 11:14 PM CST (11/19)
Length of Visible Light 10h 26m
Length of Day
9h 22m
Waxing Crescent, 41% of the Moon is Illuminated
Nov 19
Waxing Crescent
Nov 20
First Quarter
Nov 28
Full
Dec 6
Last Quarter
Dec 13
New

Hourly Weather History & Observations

Time (CST) Temp. Windchill Dew Point Humidity Pressure Visibility Wind Dir Wind Speed Gust Speed Precip Events Conditions
12:14 AM 51.8 °F - 35.6 °F 54% 30.08 in 10.0 mi SSE 11.5 mph - N/A   Mostly Cloudy
12:34 AM 51.8 °F - 35.6 °F 54% 30.08 in 10.0 mi SE 12.7 mph - N/A   Mostly Cloudy
12:54 AM 50.0 °F - 35.6 °F 58% 30.08 in 10.0 mi SSE 11.5 mph - N/A   Scattered Clouds
1:14 AM 50.0 °F - 35.6 °F 58% 30.07 in 10.0 mi SSE 12.7 mph - N/A   Scattered Clouds
1:34 AM 50.0 °F - 35.6 °F 58% 30.07 in 10.0 mi SSE 10.4 mph - N/A   Scattered Clouds
1:54 AM 50.0 °F - 35.6 °F 58% 30.08 in 10.0 mi SE 9.2 mph - N/A   Mostly Cloudy
2:13 AM 51.8 °F - 35.6 °F 54% 30.07 in 10.0 mi SSE 8.1 mph - N/A   Overcast
2:34 AM 51.8 °F - 35.6 °F 54% 30.07 in 10.0 mi SSE 10.4 mph - N/A   Overcast
2:54 AM 51.8 °F - 35.6 °F 54% 30.06 in 10.0 mi SSE 11.5 mph - N/A   Mostly Cloudy
3:14 AM 51.8 °F - 35.6 °F 54% 30.06 in 10.0 mi SSE 9.2 mph - N/A   Mostly Cloudy
3:34 AM 51.8 °F - 35.6 °F 54% 30.05 in 10.0 mi SSE 10.4 mph - N/A   Overcast
3:54 AM 51.8 °F - 35.6 °F 54% 30.05 in 10.0 mi SSE 9.2 mph - N/A   Overcast
4:14 AM 51.8 °F - 35.6 °F 54% 30.04 in 10.0 mi SSE 11.5 mph - N/A   Mostly Cloudy
4:34 AM 51.8 °F - 35.6 °F 54% 30.04 in 10.0 mi SSE 9.2 mph - N/A   Scattered Clouds
4:54 AM 51.8 °F - 35.6 °F 54% 30.04 in 10.0 mi SSE 9.2 mph - N/A   Scattered Clouds
5:14 AM 51.8 °F - 35.6 °F 54% 30.04 in 10.0 mi SSE 8.1 mph - N/A   Scattered Clouds
5:34 AM 50.0 °F - 35.6 °F 58% 30.04 in 10.0 mi SSE 6.9 mph - N/A   Scattered Clouds
5:54 AM 50.0 °F - 35.6 °F 58% 30.04 in 10.0 mi SSE 9.2 mph - N/A   Light Drizzle
6:14 AM 50.0 °F - 37.4 °F 62% 30.04 in 10.0 mi SE 9.2 mph - N/A   Overcast
6:34 AM 51.8 °F - 37.4 °F 58% 30.03 in 10.0 mi SSE 10.4 mph - N/A   Overcast
6:45 AM 51.8 °F - 37.4 °F 58% 30.03 in 10.0 mi SSE 9.2 mph - N/A   Mostly Cloudy
6:54 AM 51.8 °F - 37.4 °F 58% 30.04 in 10.0 mi SSE 10.4 mph - N/A   Mostly Cloudy
7:45 AM 51.8 °F - 37.4 °F 58% 30.05 in 10.0 mi SSE 6.9 mph - N/A   Mostly Cloudy
8:45 AM 51.8 °F - 39.2 °F 62% 30.04 in 10.0 mi SSE 9.2 mph - N/A   Mostly Cloudy
9:55 AM 53.6 °F - 39.2 °F 58% 30.04 in 10.0 mi SSE 6.9 mph - N/A   Mostly Cloudy
10:45 AM 53.6 °F - 39.2 °F 58% 30.04 in 10.0 mi SSE 10.4 mph - N/A   Scattered Clouds
12:50 PM 57.2 °F - 39.2 °F 51% 30.02 in 10.0 mi South 8.1 mph - N/A   Scattered Clouds
1:45 PM 59.0 °F - 39.2 °F 48% 30.01 in 10.0 mi South 8.1 mph - N/A   Mostly Cloudy
2:45 PM 59.0 °F - 39.2 °F 48% 30.01 in 10.0 mi ESE 3.5 mph - N/A   Mostly Cloudy
3:45 PM 57.2 °F - 39.2 °F 51% 30.01 in 10.0 mi South 8.1 mph - N/A   Scattered Clouds
4:45 PM 55.4 °F - 39.2 °F 54% 30.02 in 10.0 mi Calm Calm - N/A   Scattered Clouds
6:50 PM 44.6 °F - 37.4 °F 76% 30.04 in 10.0 mi Calm Calm - N/A   Clear
8:45 PM 42.8 °F - 39.2 °F 87% 30.04 in 10.0 mi Calm Calm - N/A   Clear
9:14 PM 39.2 °F - 35.6 °F 87% 30.04 in 10.0 mi Calm Calm - N/A   Clear
9:34 PM 39.2 °F - 37.4 °F 93% 30.04 in 10.0 mi Calm Calm - N/A   Clear
9:53 PM 39.2 °F - 37.4 °F 93% 30.04 in 10.0 mi Calm Calm - N/A   Clear
10:14 PM 37.4 °F - 35.6 °F 93% 30.04 in 10.0 mi Calm Calm - N/A   Clear
10:34 PM 39.2 °F - 37.4 °F 93% 30.05 in 10.0 mi Calm Calm - N/A   Clear
10:53 PM 37.4 °F - 35.6 °F 93% 30.05 in 10.0 mi Calm Calm - N/A   Clear
11:14 PM 37.4 °F - 35.6 °F 93% 30.06 in 10.0 mi Calm Calm - N/A   Clear
11:34 PM 35.6 °F 31.7 °F 33.8 °F 93% 30.06 in 10.0 mi West 4.6 mph - N/A   Clear
11:53 PM 37.4 °F 33.8 °F 35.6 °F 93% 30.07 in 10.0 mi WNW 4.6 mph - N/A   Clear